TimeGMT,TemperatureF,Dew PointF,Humidity,Sea Level PressureIn,VisibilityMPH,Wind Direction,Wind SpeedMPH,Gust SpeedMPH,PrecipitationIn,Events,Conditions,WindDirDegrees,DateUTC
12:20 AM,41.0,37.4,87,29.47,6.2,SSW,16.1,-,N/A,,Partly Cloudy,210,2012-12-30 00:20:00
12:50 AM,41.0,37.4,87,29.47,6.2,SSW,16.1,-,N/A,,Partly Cloudy,210,2012-12-30 00:50:00
1:20 AM,41.0,35.6,81,29.50,6.2,SW,13.8,-,N/A,,Partly Cloudy,220,2012-12-30 01:20:00
1:50 AM,41.0,35.6,81,29.50,-9999.0,SW,18.4,-,N/A,,Clear,220,2012-12-30 01:50:00
2:20 AM,39.2,35.6,87,29.50,-9999.0,SW,17.3,-,N/A,,Clear,220,2012-12-30 02:20:00
2:50 AM,39.2,33.8,81,29.53,-9999.0,SSW,13.8,-,N/A,,Clear,210,2012-12-30 02:50:00
3:20 AM,39.2,33.8,81,29.50,-9999.0,SSW,11.5,-,N/A,,Clear,200,2012-12-30 03:20:00
3:50 AM,39.2,35.6,87,29.53,-9999.0,SSW,15.0,-,N/A,,Clear,210,2012-12-30 03:50:00
4:20 AM,39.2,33.8,81,29.53,-9999.0,SW,17.3,-,N/A,,Clear,220,2012-12-30 04:20:00
4:50 AM,39.2,33.8,81,29.53,-9999.0,SSW,15.0,-,N/A,,Clear,210,2012-12-30 04:50:00
5:20 AM,39.2,33.8,81,29.53,-9999.0,SW,19.6,-,N/A,,Clear,220,2012-12-30 05:20:00
5:50 AM,41.0,35.6,81,29.56,-9999.0,SSW,19.6,-,N/A,,Clear,210,2012-12-30 05:50:00
6:20 AM,39.2,33.8,81,29.56,6.2,SW,18.4,-,N/A,,Partly Cloudy,220,2012-12-30 06:20:00
6:50 AM,39.2,35.6,87,29.59,6.2,SSW,17.3,-,N/A,,Partly Cloudy,210,2012-12-30 06:50:00
7:50 AM,39.2,33.8,81,29.59,6.2,SW,16.1,-,N/A,,Partly Cloudy,220,2012-12-30 07:50:00
8:20 AM,39.2,33.8,81,29.59,6.2,SW,17.3,-,N/A,,Partly Cloudy,220,2012-12-30 08:20:00
8:50 AM,41.0,33.8,76,29.62,6.2,SW,16.1,-,N/A,,Partly Cloudy,230,2012-12-30 08:50:00
9:20 AM,41.0,33.8,76,29.62,6.2,SW,19.6,-,N/A,,Partly Cloudy,230,2012-12-30 09:20:00
9:50 AM,41.0,33.8,76,29.65,6.2,SW,19.6,-,N/A,,Partly Cloudy,230,2012-12-30 09:50:00
10:20 AM,42.8,35.6,76,29.65,6.2,SW,19.6,-,N/A,,Partly Cloudy,220,2012-12-30 10:20:00
10:50 AM,42.8,35.6,76,29.65,6.2,SSW,17.3,-,N/A,,Partly Cloudy,210,2012-12-30 10:50:00
11:20 AM,46.4,37.4,71,29.65,6.2,SSW,18.4,-,N/A,,Partly Cloudy,210,2012-12-30 11:20:00
11:50 AM,46.4,37.4,71,29.65,6.2,SW,20.7,-,N/A,,Partly Cloudy,230,2012-12-30 11:50:00
12:20 PM,46.4,37.4,71,29.65,6.2,SW,25.3,39.1,N/A,,Partly Cloudy,230,2012-12-30 12:20:00
12:50 PM,46.4,37.4,71,29.65,6.2,SW,20.7,33.4,N/A,,Scattered Clouds,220,2012-12-30 12:50:00
1:20 PM,46.4,37.4,71,29.65,6.2,SW,23.0,-,N/A,,Scattered Clouds,220,2012-12-30 13:20:00
1:50 PM,46.4,37.4,71,29.68,6.2,SW,21.9,-,N/A,,Scattered Clouds,230,2012-12-30 13:50:00
2:20 PM,48.2,37.4,66,29.68,6.2,SW,17.3,-,N/A,Rain,Light Rain Showers,220,2012-12-30 14:20:00
2:50 PM,48.2,37.4,66,29.68,6.2,SW,19.6,-,N/A,,Scattered Clouds,230,2012-12-30 14:50:00
3:20 PM,48.2,39.2,71,29.68,6.2,WSW,19.6,-,N/A,,Scattered Clouds,240,2012-12-30 15:20:00
3:50 PM,46.4,37.4,71,29.68,6.2,SW,15.0,-,N/A,,Scattered Clouds,220,2012-12-30 15:50:00
4:20 PM,46.4,37.4,71,29.68,6.2,SW,16.1,-,N/A,,Scattered Clouds,220,2012-12-30 16:20:00
4:50 PM,48.2,39.2,71,29.68,6.2,SSW,13.8,-,N/A,,Partly Cloudy,210,2012-12-30 16:50:00
5:20 PM,46.4,39.2,76,29.68,6.2,SW,15.0,-,N/A,,Partly Cloudy,220,2012-12-30 17:20:00
5:50 PM,46.4,39.2,76,29.65,6.2,SW,19.6,-,N/A,,Partly Cloudy,220,2012-12-30 17:50:00
6:20 PM,48.2,41.0,76,29.65,6.2,SSW,23.0,34.5,N/A,,Partly Cloudy,210,2012-12-30 18:20:00
6:50 PM,50.0,42.8,76,29.62,6.2,SW,19.6,-,N/A,,Partly Cloudy,220,2012-12-30 18:50:00
7:20 PM,50.0,42.8,76,29.62,6.2,SW,27.6,42.6,N/A,,Scattered Clouds,220,2012-12-30 19:20:00
7:50 PM,50.0,42.8,76,29.62,6.2,SW,28.8,-,N/A,,Partly Cloudy,230,2012-12-30 19:50:00
8:20 PM,50.0,44.6,82,29.62,6.2,SW,28.8,-,N/A,Rain,Light Rain,220,2012-12-30 20:20:00
8:50 PM,51.8,44.6,76,29.62,6.2,SW,27.6,-,N/A,,Partly Cloudy,220,2012-12-30 20:50:00
9:20 PM,50.0,42.8,76,29.62,6.2,SSW,26.5,-,N/A,,Scattered Clouds,210,2012-12-30 21:20:00
9:50 PM,51.8,44.6,76,29.62,6.2,SW,23.0,-,N/A,,Scattered Clouds,220,2012-12-30 21:50:00
10:20 PM,51.8,44.6,76,29.62,6.2,SW,21.9,-,N/A,,Partly Cloudy,220,2012-12-30 22:20:00
10:50 PM,51.8,44.6,76,29.62,6.2,South,13.8,-,N/A,,Mostly Cloudy,190,2012-12-30 22:50:00
11:20 PM,51.8,44.6,76,29.62,6.2,SSW,16.1,-,N/A,,Mostly Cloudy,200,2012-12-30 23:20:00
11:50 PM,53.6,44.6,72,29.62,6.2,SW,19.6,32.2,N/A,,Mostly Cloudy,220,2012-12-30 23:50:00